Terug naar catalogus

STARLINK-31448

ActiefCommunicatieVLEO
NORAD 59611·PAYLOAD·🇺🇸 United States

Gelanceerd Apr 28, 2024 vanaf Cape Canaveral Space Force Station

Loading…

Volgende Passages (komende 24 uur)

TLE

VersSource: CelesTrak SupGP

Epoch: Sep 15, 2026, 03:21 UTC

1 59611C 24080L   26258.14006944 -.00016331  00000+0 -59164-3 0  2588
2 59611  43.0041  44.5713 0001487 266.7363 184.8754 15.27580019    19

Volg STARLINK-31448 in realtime met AllMySat

Download on the App Store